Location: Colle Santa Colomba
(42.0333°N, 12.5667°E)
Time: 23:33:35
(UTC+00:00)

X-37B - Visible Passes

Search period start: 06 December 2022 00:00
Search period end: 16 December 2022 00:00
Orbit: 277 x 277 km, 45.0° (Epoch: 01 November)

Date Brightness Start Highest point End Pass type
(mag) Time Alt. Az. Time Alt. Az. Time Alt. Az.
06 Dec 2.5 17:30:58 10° SW 17:31:49 17° SSW 17:31:49 17° SSW visible
07 Dec 2.2 17:31:23 10° SW 17:32:37 25° SW 17:32:37 25° SW visible
08 Dec 2.1 17:32:01 10° WSW 17:33:21 28° WSW 17:33:21 28° WSW visible
09 Dec 2.2 17:32:45 10° W 17:34:03 26° W 17:34:03 26° W visible
10 Dec 2.4 17:33:33 10° W 17:34:42 22° WNW 17:34:42 22° WNW visible
11 Dec 2.5 17:34:20 10° WNW 17:35:21 20° WNW 17:35:21 20° WNW visible
12 Dec 2.6 17:35:07 10° WNW 17:36:00 18° WNW 17:36:00 18° WNW visible
13 Dec 2.6 17:35:50 10° WNW 17:36:40 18° WNW 17:36:40 18° WNW visible
14 Dec 2.6 17:36:32 10° WNW 17:37:22 18° WNW 17:37:22 18° WNW visible
15 Dec 2.5 17:37:12 10° WNW 17:38:09 20° WNW 17:38:09 20° WNW visible
